Theta_e
321 320 320 321 321 322 322 323 323 322 322 321 320 319 319 320 318 314 311 307 301 300
319 319 320 321 322 323 323 323 321 320 320 320 319 318 317 315 313 309 307 307 301 295
317 319 320 321 321 322 323 320 315 316 318 320 321 317 314 314 305 305 302 302 298 293
321 319 319 320 321 322 322 318 315 315 316 318 316 313 311 310 307 305 303 296 295 293
314 314 316 320 322 321 322 318 318 317 316 314 313 309 309 306 301 301 299 297 294 294
306 308 311 315 316 316 316 314 311 310 311 309 308 306 305 305 301 300 298 297 294 293
299 301 303 305 306 306 306 306 305 305 306 304 304 303 301 301 298 297 296 294 293 291
296 298 299 298 298 296 296 298 298 299 298 298 297 297 296 295 293 293 292 292 291 290
294 293 293 292 292 292 291 291 291 292 292 292 294 295 295 293 292 290 289 288 287 288
290 290 289 288 288 288 288 289 290 290 290 290 290 293 294 292 290 289 288 287 286 285
288 287 286 286 286 285 286 288 288 288 288 287 287 291 293 290 287 287 287 286 286 286
286 282 284 281 281 286 285 285 285 285 285 285 285 290 292 289 286 285 285 285 286 286
283 280 279 280 280 284 284 284 284 284 285 285 285 290 291 288 285 284 284 284 284 284
280 278 278 277 277 281 284 283 284 283 284 284 285 286 291 290 285 285 284 284 283 284
Wind_Speed
17 12 13 13 11 11 11 12 12 12 13 13 12 12 11 9 9 8 7 8 5 6
13 14 13 14 11 11 11 9 10 11 12 12 11 11 10 9 10 7 8 9 9 6
13 14 14 11 14 13 12 9 7 9 10 11 12 11 9 8 5 8 6 6 8 5
9 10 11 12 11 13 10 8 9 10 11 12 11 10 9 9 7 11 10 7 10 9
4 4 6 9 12 9 11 8 12 12 12 11 11 10 11 11 10 12 12 11 8 9
6 6 8 8 7 6 7 7 7 7 9 10 10 10 11 12 10 11 11 10 11 11
6 5 4 4 4 5 4 5 4 5 5 5 6 6 6 7 7 8 8 8 9 9
2 2 1 1 1 2 2 2 1 1 1 1 2 3 4 5 5 5 4 4 4 2
2 2 4 5 5 3 2 1 3 2 2 3 3 5 9 7 5 6 7 6 4 5
4 3 4 3 3 4 4 3 3 3 2 5 5 7 10 10 4 6 6 6 7 6
4 3 3 3 4 3 2 3 3 4 4 3 4 6 7 7 2 2 4 5 6 7
2 2 2 2 2 2 2 2 0 1 2 2 2 6 9 9 5 5 3 4 4 5
4 4 3 3 2 2 2 1 1 2 2 2 3 5 8 8 2 2 3 3 4 6
5 4 3 3 2 2 2 3 1 1 2 2 2 3 9 11 3 3 3 3 4 5
Wind_Direction
207 210 216 217 213 218 217 218 218 215 219 220 217 218 217 223 222 201 197 195 207 199
215 215 219 222 218 224 226 226 217 209 213 218 217 220 213 218 221 203 205 221 199 189
209 214 220 214 220 220 227 216 203 206 213 219 221 217 212 224 207 197 208 213 210 203
215 211 216 222 219 222 222 209 202 206 213 218 208 205 205 212 211 223 217 198 198 207
221 221 226 226 230 215 219 204 210 213 216 212 213 200 205 207 201 209 213 207 200 218
229 216 219 222 217 206 203 201 200 201 212 210 209 203 213 212 202 214 209 210 200 195
224 227 237 245 229 224 207 191 204 221 235 224 219 222 223 228 214 208 214 198 201 191
230 223 194 173 93 51 15 320 110 168 296 265 201 182 184 201 195 209 204 214 194 189
63 25 11 19 20 27 50 72 59 32 239 253 245 203 207 187 194 188 181 184 161 147
41 41 40 55 51 34 19 18 12 314 277 266 262 242 223 207 187 190 188 178 157 142
69 67 51 45 42 37 23 6 338 322 320 303 289 281 230 187 176 174 176 172 168 171
82 113 95 74 45 33 42 40 312 308 264 240 275 242 191 169 165 163 166 133 153 152
70 88 90 107 83 72 89 61 14 335 314 311 286 254 192 169 106 141 141 159 158 171
67 84 82 95 62 87 86 96 57 24 344 316 262 259 208 188 157 164 166 175 175 184